Regional Weather Roundup
Issued by NWS

Home | Current Version | Previous Version | Text Only | Print | Product List | Glossary On
Versions: 1 2 3 4 5 6 7 8 9 10 11 12 13 14 15 16 17 18 19 20 21 22 23 24 25 26 27
000
ASUS45 KREV 012010
RWRNV
NEVADA REGIONAL WEATHER ROUNDUP
NATIONAL WEATHER SERVICE RENO NV
100 PM PDT SUN MAY 01 2016

NOTE: "FAIR" INDICATES FEW OR NO CLOUDS BELOW 12,000 FEET WITH NO
SIGNIFICANT WEATHER AND/OR OBSTRUCTIONS TO VISIBILITY.

NVZ001-003-004-012100-
WESTERN NEVADA

CITY           SKY/WX    TMP DP  RH WIND       PRES   REMARKS
RENO           PTSUNNY   62  31  31 S9        30.02F
CARSON CITY    PTSUNNY   59  32  36 E6        30.04S
MINDEN         FAIR      59  36  41 SW7       30.04F
SLIDE MTN        N/A     32  27  80 E17         N/A
PYRAMID LAKE     N/A     57 N/A N/A NE6         N/A
FALLON         MOSUNNY   63  30  28 CALM      30.01F
LOVELOCK       PTSUNNY   66  32  28 SE8G17    30.01F
HAWTHORNE      SUNNY     63  32  31 N6        30.01F
$$

NVZ002-CAZ072-073-012100-
NORTHERN AND CENTRAL SIERRA

CITY           SKY/WX    TMP DP  RH WIND       PRES   REMARKS
S. LAKE TAHOE  PTSUNNY   52  30  43 E9        30.04F
TRUCKEE        PTSUNNY   54  30  40 S13G18    30.05F
SQUAW VLY 8000   N/A     41  30  65 S6          N/A
BLUE CANYON    MOSUNNY   57  26  30 VRB6      30.02S
MAMMOTH LAKES  LGT RAIN  49  26  40 W7        30.05S
$$

NVZ030-031-036-012100-
NORTHERN NEVADA

CITY           SKY/WX    TMP DP  RH WIND       PRES   REMARKS
ELKO           MOSUNNY   59  32  36 NE17G24   30.05F
WINNEMUCCA     MOSUNNY   60  32  34 VRB5      30.03F
WENDOVER       PTSUNNY   55  30  38 E8G18     30.09S
$$

NVZ035-037-012100-
CENTRAL NEVADA

CITY           SKY/WX    TMP DP  RH WIND       PRES   REMARKS
ELY            MOSUNNY   50  31  48 N17G26    30.05F
EUREKA           N/A     51  29  42 NE10G16   30.05F
$$

NVZ013-014-012100-
SOUTH CENTRAL NEVADA

CITY           SKY/WX    TMP DP  RH WIND       PRES   REMARKS
TONOPAH        CLOUDY    58  26  29 VRB5      30.02S
$$

NVZ017-020-022-012100-
SOUTHERN NEVADA

CITY           SKY/WX    TMP DP  RH WIND       PRES   REMARKS
LAS VEGAS      MOSUNNY   73  36  25 NW6       29.88S
N. LAS VEGAS   MOSUNNY   72  36  26 VRB5      29.90F
NELLIS AFB     SUNNY     72  38  28 NE8       29.90S
HENDERSON      SUNNY     70  42  36 E10       29.94S
MERCURY        MOSUNNY   69  37  30 VRB5      29.93F
$$




USA.gov is the U.S. government's official web portal to all federal, state and local government web resources and services.